Flag for U.S.A. Weather past 2 weeks in Corvallis, Oregon, U.S.A.

36 °F

Passing clouds.

Feels Like: 30 °F
Forecast: 29 / 41 °F
Wind: 7 mph from North

Location: Corvallis Municipal

Current Time: Nov 25, 2015 at 1:26:34 AM

Latest Report: Nov 25, 2015 at 12:55 AM

Visibility: 10 mi

Pressure: 30.05 "Hg

Humidity: 81%

Dew point: 30 °F

Location of CorvallisLocation

Historic Weather in Corvallis — Graph


Corvallis temperature yesterday

Maximum temperature yesterday: 46 °F (at 12:15 AM)
Minimum temperature yesterday: 37 °F (at 11:55 PM)
Average temperature yesterday: 41 °F

Past Weeks' High & Low Weather Summary

High61 °F (Nov 14, 12:55 PM)100% (Nov 21, 8:35 AM)30.44 "Hg (Nov 21, 8:35 AM)
Low27 °F (Nov 22, 2:15 AM)50% (Nov 21, 12:15 PM)29.49 "Hg (Nov 15, 12:55 AM)
Average44 °F84%30.12 "Hg
* Reported Nov 10 12:15 AM — Nov 25 12:15 AM, Corvallis, Weather by CustomWeather, © 2015

Note: Actual official high and low records may vary slightly from our data, if they occured in-between our weather recording intervals... More about our weather records


Corvallis weather history for previous 24 hours

Time TempWeatherWind HumidityBarometerVisibility
12:15 AM
Wed, Nov 25
37 °FOvercast.7 mph87%30.05 "Hg10 mi
11:55 PM
Tue, Nov 24
37 °FPassing clouds.5 mph87%30.05 "Hg10 mi
11:15 PM39 °FOvercast.5 mph81%30.04 "Hg10 mi
10:55 PM39 °FOvercast.5 mph81%30.03 "Hg10 mi
10:15 PM39 °FOvercast.8 mph87%30.02 "Hg10 mi
9:55 PM39 °FOvercast.No wind87%30.02 "Hg10 mi
9:35 PM39 °FOvercast.No wind87%30.02 "Hg10 mi
9:15 PM39 °FMostly cloudy.No wind87%30.01 "Hg10 mi
8:55 PM39 °FOvercast.No wind87%30.01 "Hg10 mi
8:35 PM39 °FOvercast.No wind87%30.00 "Hg10 mi
8:15 PM39 °FOvercast.5 mph87%30.00 "Hg10 mi
7:35 PM39 °FPassing clouds.5 mph87%29.99 "Hg10 mi
7:15 PM39 °FPartly cloudy.3 mph87%29.98 "Hg10 mi
6:55 PM39 °FOvercast.6 mph87%29.97 "Hg10 mi
6:35 PM39 °FMostly cloudy.No wind87%29.97 "Hg10 mi
6:15 PM39 °FOvercast.3 mph87%29.96 "Hg10 mi
5:55 PM41 °FMostly cloudy.6 mph87%29.96 "Hg10 mi
5:35 PM41 °FMostly cloudy.8 mph81%29.95 "Hg10 mi
5:15 PM41 °FMostly cloudy.6 mph87%29.95 "Hg10 mi
3:55 PM43 °FOvercast.5 mph81%29.91 "Hg10 mi
3:35 PM43 °FOvercast.6 mph81%29.91 "Hg10 mi
3:15 PM43 °FOvercast.6 mph81%29.90 "Hg10 mi
2:55 PM43 °FMore clouds than sun.6 mph81%29.89 "Hg10 mi
2:15 PM43 °FOvercast.7 mph81%29.88 "Hg10 mi
1:55 PM43 °FOvercast.6 mph81%29.87 "Hg10 mi
1:35 PM43 °FPartly sunny.3 mph81%29.87 "Hg10 mi
12:55 PM43 °FPartly sunny.6 mph87%29.86 "Hg10 mi
12:35 PM43 °FBroken clouds.7 mph87%29.86 "Hg10 mi
12:15 PM43 °FMostly cloudy.5 mph81%29.86 "Hg10 mi
11:55 AM43 °FOvercast.5 mph81%29.86 "Hg10 mi
11:35 AM43 °FMostly cloudy.No wind87%29.85 "Hg10 mi
11:15 AM43 °FMore clouds than sun.No wind81%29.85 "Hg10 mi
10:55 AM41 °FMostly cloudy.No wind87%29.85 "Hg10 mi
10:35 AM41 °FLow clouds.3 mph87%29.85 "Hg10 mi
9:55 AM39 °FCloudy.No wind93%29.83 "Hg10 mi
9:35 AM39 °FCloudy.No wind93%29.82 "Hg9 mi
9:15 AM39 °FBroken clouds.No wind93%29.82 "Hg5 mi
8:55 AM39 °FBroken clouds.No wind93%29.82 "Hg10 mi
8:35 AM39 °FOvercast.No wind93%29.81 "Hg10 mi
7:55 AM39 °FCloudy.5 mph93%29.80 "Hg10 mi
7:35 AM39 °FCloudy.3 mph87%29.80 "Hg10 mi
7:15 AM39 °FMostly cloudy.8 mph93%29.79 "Hg10 mi
6:55 AM39 °FOvercast.8 mph93%29.79 "Hg10 mi
6:35 AM39 °FMostly cloudy.6 mph93%29.79 "Hg10 mi
6:15 AM39 °FOvercast.7 mph93%29.78 "Hg10 mi
5:55 AM41 °FPartly cloudy.5 mph87%29.78 "Hg10 mi
5:35 AM41 °FOvercast.5 mph87%29.77 "Hg10 mi
5:15 AM41 °FMostly cloudy.3 mph87%29.78 "Hg10 mi
4:55 AM41 °FOvercast.No wind87%29.78 "Hg10 mi
4:35 AM41 °FOvercast.No wind87%29.78 "Hg10 mi
4:15 AM41 °FOvercast.No wind87%29.78 "Hg10 mi
3:55 AM41 °FOvercast.No wind87%29.77 "Hg10 mi
3:35 AM41 °FMostly cloudy.3 mph87%29.77 "Hg10 mi
3:15 AM41 °FMostly cloudy.No wind87%29.78 "Hg10 mi
2:55 AM41 °FOvercast.3 mph87%29.77 "Hg10 mi
2:35 AM41 °FOvercast.5 mph87%29.78 "Hg10 mi
2:15 AM41 °FOvercast.7 mph87%29.77 "Hg10 mi
1:55 AM43 °FOvercast.10 mph81%29.75 "Hg10 mi
1:35 AM43 °FOvercast.12 mph81%29.74 "Hg10 mi
1:15 AM43 °FOvercast.14 mph81%29.74 "Hg10 mi
Weather by CustomWeather, © 2015

See weather overviewHow to use our weather pages